Location: Betz
(49.1556°N, 2.9558°E)
Time: 13:22:46
(UTC+00:00)

ERS-1 Rocket - Pass Details

Date: 18 September 2019
Orbit: 754 x 757 km, 98.5° (Epoch: 18 October)

Event Time Altitude Azimuth Distance (km) Brightness Sun altitude
Exits shadow 20:20:33 35° 58° (ENE) 1,221 3.8 -23.2°
Drops below altitude 10° 20:24:51 10° 1° (N) 2,294 5.9 -23.8°
Sets 20:27:19 0° 352° (N) 3,224 6.8 -24.1°
